Homer, AK

1:27 AM AKDT on July 23, 2017 (GMT -0800)
Homer

Weather History for PAHO - September, 2013

Change the Weather History Date:

Saturday, September 7, 2013

  Actual Average Record
Temperature  
Mean Temperature 54 °F -  
Max Temperature 59 °F 56 °F 127 °F (2002)
Min Temperature 51 °F 42 °F 28 °F (1952)
Degree Days  
Heating Degree Days 11    
Growing Degree Days 4 (Base 50)    
Moisture  
Dew Point 49 °F    
Average Humidity 82    
Maximum Humidity 89    
Minimum Humidity 67    
Precipitation  
Precipitation 0.01 in - - ()
Sea Level Pressure  
Sea Level Pressure 29.58 in    
Wind  
Wind Speed 5 mph (WSW)    
Max Wind Speed 12 mph    
Max Gust Speed 132 mph    
Visibility 10 miles    
Events Rain    
Averages and records for this station are not official NWS values.
T = Trace of Precipitation, MM = Missing Value Source: NWS Daily Summary

Daily Weather History Graph

Daily Weather History Graph

Search for Another Location

Airport or City:

Trip Planner

Search our weather history database for the weather conditions in past years. The results will help you decide how hot, cold, wet, or windy it might be!

Date:

Astronomy

Sep. 07, 2013 Rise Set
Actual Time 7:16 AM AKDT 8:49 PM AKDT
Civil Twilight 6:33 AM AKDT 9:31 PM AKDT
Nautical Twilight 5:39 AM AKDT 10:25 PM AKDT
Astronomical Twilight 4:34 AM AKDT 11:29 PM AKDT
Moon 10:31 AM AKDT (9/7) 8:58 PM AKDT (9/7)
Length of Visible Light 14h 58m
Length of Day
13h 32m
Waxing Crescent, 6% of the Moon is Illuminated
Sep 7
Waxing Crescent
Sep 12
First Quarter
Sep 19
Full
Sep 26
Last Quarter
Oct 4
New

Hourly Weather History & Observations

Time (AKDT) Temp. Dew Point Humidity Pressure Visibility Wind Dir Wind Speed Gust Speed Precip Events Conditions
12:53 AM 55.0 °F 46.9 °F 74% 29.40 in 10.0 mi Variable 3.5 mph - 0.00 in   Overcast
1:53 AM 55.0 °F 48.0 °F 77% 29.44 in 10.0 mi Variable 6.9 mph - N/A   Overcast
1:59 AM 55.4 °F 48.2 °F 77% 29.44 in 10.0 mi Variable 3.5 mph 132.3 mph N/A   Squalls
2:30 AM 53.6 °F 48.2 °F 82% 29.46 in 10.0 mi NNE 3.5 mph - N/A   Overcast
2:53 AM 54.0 °F 48.9 °F 83% 29.48 in 10.0 mi North - - 0.00 in   Overcast
3:33 AM 53.6 °F 48.2 °F 82% 29.50 in 10.0 mi Calm Calm - N/A   Overcast
3:53 AM 54.0 °F 48.9 °F 83% 29.51 in 10.0 mi Calm Calm - N/A   Overcast
4:53 AM 53.1 °F 48.9 °F 86% 29.54 in 10.0 mi Calm Calm - N/A   Overcast
5:04 AM 53.6 °F 48.2 °F 82% 29.54 in 10.0 mi Calm Calm - N/A   Overcast
5:53 AM 54.0 °F 48.0 °F 80% 29.57 in 10.0 mi WSW 5.8 mph - N/A   Overcast
6:38 AM 53.6 °F 48.2 °F 82% 29.59 in 10.0 mi SW 4.6 mph - N/A   Overcast
6:53 AM 54.0 °F 48.9 °F 83% 29.60 in 10.0 mi WSW 4.6 mph - N/A   Overcast
7:53 AM 54.0 °F 48.9 °F 83% 29.62 in 10.0 mi Calm Calm - N/A   Overcast
8:53 AM 54.0 °F 48.9 °F 83% 29.64 in 10.0 mi WSW 3.5 mph - 0.00 in Rain Light Rain
9:30 AM 53.6 °F 50.0 °F 88% 29.65 in 10.0 mi SSW 4.6 mph - 0.00 in   Overcast
9:53 AM 54.0 °F 50.0 °F 86% 29.65 in 10.0 mi SW 6.9 mph - 0.00 in   Overcast
10:47 AM 55.4 °F 50.0 °F 82% 29.65 in 10.0 mi Variable 3.5 mph - 0.01 in   Mostly Cloudy
10:48 AM 55.4 °F 51.8 °F 88% 29.65 in 10.0 mi Variable 3.5 mph - 0.01 in   Mostly Cloudy
10:53 AM 55.0 °F 51.1 °F 86% 29.65 in 10.0 mi SSW 4.6 mph - 0.01 in   Mostly Cloudy
11:14 AM 55.4 °F 50.0 °F 82% 29.65 in 10.0 mi SSE 3.5 mph - N/A   Scattered Clouds
11:53 AM 57.0 °F 52.0 °F 83% 29.65 in 10.0 mi SE 5.8 mph - N/A   Scattered Clouds
12:00 PM 55.4 °F 51.8 °F 88% 29.65 in 10.0 mi South 5.8 mph - N/A   Mostly Cloudy
12:53 PM 57.0 °F 50.0 °F 77% 29.66 in 10.0 mi West 5.8 mph - N/A   Mostly Cloudy
1:53 PM 57.9 °F 50.0 °F 75% 29.65 in 10.0 mi West 9.2 mph - N/A   Scattered Clouds
2:53 PM 57.9 °F 46.9 °F 67% 29.63 in 10.0 mi WSW 6.9 mph - N/A   Mostly Cloudy
3:53 PM 55.9 °F 50.0 °F 80% 29.62 in 10.0 mi WSW 8.1 mph - N/A   Overcast
4:53 PM 55.9 °F 48.9 °F 77% 29.60 in 10.0 mi WSW 9.2 mph - N/A   Overcast
5:53 PM 55.0 °F 48.9 °F 80% 29.60 in 10.0 mi WSW 11.5 mph - N/A   Overcast
6:53 PM 54.0 °F 48.9 °F 83% 29.58 in 10.0 mi WSW 8.1 mph - N/A   Overcast
7:53 PM 54.0 °F 48.9 °F 83% 29.57 in 10.0 mi WSW 9.2 mph - N/A   Overcast
8:28 PM 53.6 °F 48.2 °F 82% 29.57 in 10.0 mi West 8.1 mph - N/A   Overcast
8:35 PM 53.6 °F 48.2 °F 82% 29.57 in 10.0 mi West 9.2 mph - N/A   Overcast
8:53 PM 53.1 °F 48.9 °F 86% 29.57 in 10.0 mi WSW 8.1 mph - N/A   Mostly Cloudy
9:00 PM 53.6 °F 48.2 °F 82% 29.57 in 10.0 mi WSW 6.9 mph - N/A   Mostly Cloudy
9:11 PM 53.6 °F 48.2 °F 82% 29.57 in 10.0 mi WSW 8.1 mph - N/A   Overcast
9:53 PM 52.0 °F 48.9 °F 89% 29.56 in 9.0 mi WSW 9.2 mph - N/A   Overcast
10:23 PM 51.8 °F 48.2 °F 88% 29.56 in 10.0 mi WSW 8.1 mph - N/A   Overcast
10:36 PM 53.6 °F 48.2 °F 82% 29.56 in 10.0 mi WSW 6.9 mph - N/A   Overcast
10:53 PM 53.1 °F 48.0 °F 83% 29.56 in 10.0 mi West 6.9 mph - N/A   Overcast
11:22 PM 53.6 °F 48.2 °F 82% 29.56 in 10.0 mi West 5.8 mph - N/A   Overcast
11:53 PM 53.1 °F 48.9 °F 86% 29.56 in 10.0 mi WSW 6.9 mph - N/A   Overcast